Location: Risskov
(56.1972°N, 10.2480°E)
Time: 23:03:33
(UTC+00:00)

Cosmos 923 Rocket - Pass Details

Date: 05 July 2020
Orbit: 757 x 786 km, 74.0° (Epoch: 14 August)

Event Time Altitude Azimuth Distance (km) Brightness Sun altitude
Exits shadow 21:52:24 - 189° (S) 2,578 6.2 -8.8°
Reaches altitude 10° 21:53:07 10° 188° (S) 2,306 5.9 -8.8°
Maximum altitude 21:58:14 57° 111° (ESE) 912 4.2 -9.1°
Drops below altitude 10° 22:03:26 10° 34° (NE) 2,341 7.1 -9.3°
Sets 22:05:52 0° 30° (NNE) 3,277 7.9 -9.4°
